Location: DAV
(33.5613°N, 82.7640°W)
Time: 20:20:02
(UTC-05:00)

Hubble Space Telescope - Visible Passes

Search period start: 23 January 2018 00:00
Search period end: 02 February 2018 00:00
Orbit: 537 x 541 km, 28.5° (Epoch: 23 January)

Date Brightness Start Highest point End Pass type
(mag) Time Alt. Az. Time Alt. Az. Time Alt. Az.
23 Jan 2.6 18:53:35 10° SSW 18:56:37 20° SSE 18:58:58 13° ESE visible
23 Jan 3.6 20:33:35 10° WSW 20:34:20 14° WSW 20:34:20 14° WSW visible
24 Jan 2.4 18:42:58 10° SW 18:46:17 23° SSE 18:49:22 11° ESE visible
24 Jan 3.2 20:23:15 10° WSW 20:24:44 20° SW 20:24:44 20° SW visible
25 Jan 2.3 18:32:26 10° SW 18:35:57 27° SSE 18:39:28 10° ESE visible
25 Jan 2.6 20:12:56 10° WSW 20:15:07 27° SW 20:15:07 27° SW visible
26 Jan 2.1 18:21:59 10° SW 18:25:38 30° SSE 18:29:17 10° ESE visible
26 Jan 2.1 20:02:38 10° WSW 20:05:31 34° SW 20:05:31 34° SW visible
27 Jan 1.7 19:52:21 10° WSW 19:55:55 39° SSW 19:55:55 39° SSW visible
28 Jan 1.7 19:42:06 10° WSW 19:45:56 38° S 19:46:21 36° S visible
29 Jan 1.9 19:31:51 10° WSW 19:35:38 35° S 19:36:50 29° SSE visible
30 Jan 2.1 19:21:38 10° WSW 19:25:19 32° S 19:27:23 20° SE visible
31 Jan 2.4 19:11:26 10° WSW 19:15:00 28° SSW 19:17:59 13° SE visible
01 Feb 2.7 19:01:17 10° WSW 19:04:40 25° SSW 19:08:04 10° SE visible
